This demonstration page uses our WeatherBlox Daily Observations layout. Learn more.

Left ArrowRight Arrow

41.55636, -103.73856

Hourly Observations for June 9, 2015

Temp ( °F °C ) Dew Point ( °F °C ) Humidity (%) Winds ( mph kmh ) Pressure ( in mb ) Visibility ( mi km ) Precip ( " mm )
12:53 am 00:53 Clear 61 16.1 56 13.3 84 84 NE 5 7 29.89 1012 10 16.0934 0 0
1:53 am 01:53 Clear 62 16.7 55 12.8 78 78 ENE 3 6 29.88 1012 10 16.0934 0 0
2:53 am 02:53 Clear 61 16.1 54 12.2 78 78 NNW 3 6 29.87 1012 10 16.0934 0 0
3:53 am 03:53 Clear 58 14.4 53 11.7 84 84 Calm 29.87 1012 10 16.0934 0 0
4:53 am 04:53 Clear 56 13.3 52 11.1 87 87 NW 5 7 29.87 1012 10 16.0934 0 0
5:53 am 05:53 Sunny 55 12.8 52 11.1 90 90 NW 3 6 29.88 1012 10 16.0934 0 0
6:53 am 06:53 Sunny 63 17.2 56 13.3 78 78 NW 5 7 29.87 1011 10 16.0934 0 0
7:53 am 07:53 Sunny 67 19.4 56 13.3 68 68 W 6 9 29.88 1012 10 16.0934 0 0
8:53 am 08:53 Sunny 73 22.8 56 13.3 55 55 NW 5 7 29.87 1011 10 16.0934 0 0
9:53 am 09:53 Sunny 78 25.6 56 13.3 47 47 WNW 7 11 29.86 1011 10 16.0934 0 0
10:53 am 10:53 Sunny 82 27.8 54 12.2 38 38 NW 9 15 29.84 1011 10 16.0934 0 0
11:53 am 11:53 Sunny 85 29.4 54 12.2 35 35 VRB 5 7 29.83 1010 10 16.0934 0 0
12:53 pm 12:53 Sunny 89 31.7 50 10 26 26 Calm 29.81 1010 10 16.0934 0 0
1:53 pm 13:53 Sunny 91 32.8 39 3.9 16 16 Calm 29.79 1009 10 16.0934 0 0
2:53 pm 14:53 Sunny 90 32.2 43 6.1 19 19 SSW 9 15 29.78 1009 10 16.0934 0 0
3:53 pm 15:53 Sunny 91 32.8 46 7.8 21 21 VRB 5 7 29.77 1008 10 16.0934 0 0
4:53 pm 16:53 Sunny 91 32.8 42 5.6 18 18 Calm 29.76 1008 10 16.0934 0 0
5:53 pm 17:53 Sunny 89 31.7 47 8.3 23 23 SSE 7 11 29.75 1008 10 16.0934 0 0
6:53 pm 18:53 Sunny 84 28.9 51 10.6 32 32 ESE 6 9 29.74 1007 10 16.0934 0 0
7:53 pm 19:53 Sunny 79 26.1 54 12.2 42 42 E 7 11 29.75 1008 10 16.0934 0 0
8:53 pm 20:53 Clear 75 23.9 53 11.7 46 46 ESE 5 7 29.75 1008 10 16.0934 0 0
9:53 pm 21:53 Clear 69 20.6 54 12.2 59 59 E 5 7 29.77 1008 10 16.0934 0 0
10:53 pm 22:53 Clear 67 19.4 54 12.2 63 63 E 6 9 29.77 1008 10 16.0934 0 0
11:53 pm 23:53 Clear 66 18.9 54 12.2 65 65 NE 5 7 29.76 1008 10 16.0934 0 0

Powered by AerisWeather